ONEWEB-0101

Last updated on Sun Apr 25 2021 00:02:03 GMT+0000 (Coordinated Universal Time)

1 48049U 21025H 21114.58336806 -.01119361 00000-0 -66014-1 0 9995 2 48049 87.4019 339.4171 0009388 137.4596 270.9731 15.14418455 1780

Satellite not in orbit